GW2459 Weather Reports


time (UTC)temp
C
wind
direction
speed
KPH
gust
KPH
rain 1hr
cm
rain 24hr
cm
rain mn
cm
humidity
%
barometer
mb
20260503181518 22 263 0.0 3.2 0.00 0.00 0.00 46 1014.9
20260503181014 21 264 4.8 4.8 0.00 0.00 0.00 49 1015.0
20260503180512 21 248 6.4 8.0 0.00 0.00 0.00 50 1015.1
20260503180009 21 197 1.6 1.6 0.00 0.00 0.00 48 1014.9
20260503175506 22 271 4.8 8.0 0.00 0.00 0.00 48 1015.0
20260503175003 21 247 3.2 3.2 0.00 0.00 0.00 48 1015.0
20260503174501 22 291 6.4 9.7 0.00 0.00 0.00 48 1015.3
20260503173956 22 161 0.0 0.0 0.00 0.00 0.00 43 1015.2
20260503173451 21 98 0.0 0.0 0.00 0.00 0.00 46 1015.2
20260503172948 21 273 1.6 1.6 0.00 0.00 0.00 46 1015.2
20260503172446 21 164 0.0 0.0 0.00 0.00 0.00 46 1015.2
20260503171942 21 190 1.6 3.2 0.00 0.00 0.00 46 1015.3
20260503171439 21 110 0.0 0.0 0.00 0.00 0.00 47 1015.5
20260503170937 20 115 1.6 1.6 0.00 0.00 0.00 48 1015.4
20260503170432 20 143 3.2 4.8 0.00 0.00 0.00 50 1015.3
20260503150825 16 116 0.0 1.6 0.00 0.00 0.00 65 1015.9
20260503150321 16 108 0.0 0.0 0.00 0.00 0.00 63 1016.1
20260503140246 15 112 0.0 0.0 0.00 0.00 0.00 65 1015.9
20260503131215 12 212 0.0 0.0 0.00 0.00 0.00 72 1015.8
20260503130713 12 212 0.0 0.0 0.00 0.00 0.00 73 1015.7
20260503130210 12 202 0.0 0.0 0.00 0.00 0.00 74 1015.6
20260503120135 14 107 0.0 0.0 0.00 0.00 0.00 62 1015.5
20260503110603 13 199 0.0 0.0 0.00 0.00 0.00 73 1015.6
20260503090450 15 214 0.0 0.0 0.00 0.00 0.00 64 1015.5
20260503081416 16 216 0.0 0.0 0.00 0.00 0.00 57 1015.6
20260503080914 16 155 0.0 0.0 0.00 0.00 0.00 56 1015.6
20260503080410 16 162 0.0 0.0 0.00 0.00 0.00 58 1015.5
20260503072846 18 108 0.0 0.0 0.00 0.00 0.00 49 1015.5
20260503072338 17 70 0.0 0.0 0.00 0.00 0.00 50 1015.4
20260503071834 17 106 0.0 0.0 0.00 0.00 0.00 51 1015.5
20260503071331 18 130 0.0 0.0 0.00 0.00 0.00 51 1015.2
20260503070827 18 135 0.0 0.0 0.00 0.00 0.00 50 1015.3
20260503070326 18 128 0.0 0.0 0.00 0.00 0.00 51 1015.2
20260503060238 17 116 0.0 0.0 0.00 0.00 0.00 55 1015.0
20260503054726 19 114 0.0 0.0 0.00 0.00 0.00 54 1014.9
20260503054222 19 119 0.0 0.0 0.00 0.00 0.00 52 1014.9
20260503053720 19 118 0.0 0.0 0.00 0.00 0.00 51 1014.7
20260503053219 20 102 0.0 0.0 0.00 0.00 0.00 50 1014.9
20260503052715 20 102 0.0 0.0 0.00 0.00 0.00 50 1014.8
20260503052212 19 102 0.0 0.0 0.00 0.00 0.00 51 1014.8
20260503051707 18 91 0.0 0.0 0.00 0.00 0.00 52 1015.0
20260503051205 18 91 0.0 0.0 0.00 0.00 0.00 53 1014.9
20260503050701 19 88 0.0 0.0 0.00 0.00 0.00 53 1014.7
20260503050157 20 114 0.0 0.0 0.00 0.00 0.00 52 1014.7
20260503045655 20 59 1.6 1.6 0.00 0.00 0.00 51 1014.7
20260503045152 20 117 0.0 0.0 0.00 0.00 0.00 52 1014.7
20260503044648 20 117 0.0 0.0 0.00 0.00 0.00 52 1014.6
20260503044146 19 116 0.0 0.0 0.00 0.00 0.00 53 1014.6
20260503043643 19 184 0.0 0.0 0.00 0.00 0.00 55 1014.7
20260503043140 19 153 0.0 0.0 0.00 0.00 0.00 56 1014.7
20260503042636 19 174 0.0 0.0 0.00 0.00 0.00 56 1014.7
20260503042132 20 120 0.0 0.0 0.00 0.00 0.00 55 1014.5
20260503041629 20 112 0.0 0.0 0.00 0.00 0.00 53 1014.6
20260503041127 20 94 0.0 0.0 0.00 0.00 0.00 53 1014.5
20260503040624 20 214 0.0 0.0 0.00 0.00 0.00 55 1014.3
20260503040121 20 217 0.0 0.0 0.00 0.00 0.00 54 1014.3
20260503035617 20 219 0.0 0.0 0.00 0.00 0.00 52 1014.2
20260503035116 20 217 0.0 0.0 0.00 0.00 0.00 51 1014.1
20260503034613 20 199 0.0 0.0 0.00 0.00 0.00 50 1014.2
20260503034110 21 201 0.0 0.0 0.00 0.00 0.00 48 1014.2
20260503033607 21 111 0.0 0.0 0.00 0.00 0.00 48 1014.0
20260503033104 21 236 0.0 0.0 0.00 0.00 0.00 49 1014.0
20260503032603 21 297 0.0 0.0 0.00 0.00 0.00 48 1013.8
20260503032101 22 283 6.4 9.7 0.00 0.00 0.00 45 1013.8
20260503031558 22 280 8.0 9.7 0.00 0.00 0.00 44 1013.8
20260503031055 22 269 8.0 9.7 0.00 0.00 0.00 44 1013.7
20260503030551 22 269 6.4 8.0 0.00 0.00 0.00 43 1013.8
20260503030048 22 256 6.4 8.0 0.00 0.00 0.00 43 1013.7
20260503025545 23 256 6.4 8.0 0.00 0.00 0.00 42 1013.8
20260503025043 23 268 8.0 9.7 0.00 0.00 0.00 42 1013.7
20260503024538 23 280 6.4 9.7 0.00 0.00 0.00 41 1013.8
20260503024037 23 280 8.0 9.7 0.00 0.00 0.00 41 1013.8
20260503023533 23 271 6.4 8.0 0.00 0.00 0.00 41 1013.7
20260503023031 23 250 4.8 4.8 0.00 0.00 0.00 41 1013.6
20260503022526 24 251 4.8 4.8 0.00 0.00 0.00 39 1013.8
20260503022021 24 243 4.8 4.8 0.00 0.00 0.00 39 1014.0
20260503021518 25 262 4.8 4.8 0.00 0.00 0.00 39 1013.8
20260503021015 24 232 4.8 8.0 0.00 0.00 0.00 39 1013.8
20260503020512 24 285 9.7 11.3 0.00 0.00 0.00 38 1013.9
20260503020009 25 250 8.0 9.7 0.00 0.00 0.00 38 1013.9
20260503015506 25 237 3.2 3.2 0.00 0.00 0.00 39 1014.0
20260503015003 25 294 11.3 12.9 0.00 0.00 0.00 38 1013.9
20260503014459 25 274 9.7 12.9 0.00 0.00 0.00 38 1013.9
20260503013957 25 282 11.3 12.9 0.00 0.00 0.00 38 1013.9
20260503013454 25 250 4.8 8.0 0.00 0.00 0.00 37 1014.1
20260503012951 25 282 9.7 11.3 0.00 0.00 0.00 37 1014.2
20260503012449 25 271 8.0 11.3 0.00 0.00 0.00 36 1014.1
20260503011944 25 285 12.9 16.1 0.00 0.00 0.00 36 1014.2
20260503011442 25 259 8.0 9.7 0.00 0.00 0.00 37 1014.0
20260503010939 25 268 11.3 14.5 0.00 0.00 0.00 38 1014.4
20260503010436 25 273 16.1 17.7 0.00 0.00 0.00 37 1014.3
20260503005933 25 286 9.7 11.3 0.00 0.00 0.00 39 1014.2
20260503005430 25 277 14.5 20.9 0.00 0.00 0.00 37 1014.2
20260503004927 25 274 8.0 8.0 0.00 0.00 0.00 38 1014.3
20260503004423 25 270 12.9 16.1 0.00 0.00 0.00 38 1014.4
20260503003921 25 276 14.5 16.1 0.00 0.00 0.00 38 1014.4
20260503003418 25 266 14.5 17.7 0.00 0.00 0.00 39 1014.2
20260503002915 25 272 9.7 11.3 0.00 0.00 0.00 38 1014.4
20260503002412 25 248 9.7 11.3 0.00 0.00 0.00 36 1014.4
20260503001908 25 266 19.3 25.7 0.00 0.00 0.00 36 1014.5
20260503001405 25 277 12.9 16.1 0.00 0.00 0.00 36 1014.5
20260503000903 25 265 8.0 11.3 0.00 0.00 0.00 38 1014.5
20260503000400 25 266 8.0 9.7 0.00 0.00 0.00 37 1014.7
20260502235856 25 266 14.5 16.1 0.00 0.00 0.00 36 1014.6
20260502235353 25 266 9.7 12.9 0.00 0.00 0.00 36 1014.7
20260502234851 25 276 14.5 17.7 0.00 0.00 0.00 36 1014.8
20260502234347 25 255 9.7 14.5 0.00 0.00 0.00 36 1014.6
20260502233844 25 263 11.3 12.9 0.00 0.00 0.00 37 1014.8
20260502233340 25 225 19.3 24.1 0.00 0.00 0.00 35 1014.9
20260502232837 25 271 11.3 16.1 0.00 0.00 0.00 36 1014.9
20260502232333 25 271 9.7 12.9 0.00 0.00 0.00 37 1014.9
20260502231830 25 265 12.9 16.1 0.00 0.00 0.00 36 1015.0
20260502231328 25 271 14.5 14.5 0.00 0.00 0.00 36 1015.1
20260502230826 25 271 12.9 14.5 0.00 0.00 0.00 38 1015.1
20260502230324 25 263 11.3 12.9 0.00 0.00 0.00 39 1015.2
20260502225820 25 260 16.1 16.1 0.00 0.00 0.00 38 1015.1
20260502225317 24 279 14.5 16.1 0.00 0.00 0.00 39 1015.3
20260502224814 23 266 14.5 16.1 0.00 0.00 0.00 39 1015.4
20260502224310 24 293 19.3 22.5 0.00 0.00 0.00 38 1015.3
20260502223808 23 269 14.5 17.7 0.00 0.00 0.00 41 1015.4
20260502223306 23 270 11.3 12.9 0.00 0.00 0.00 42 1015.4
20260502222803 24 262 11.3 12.9 0.00 0.00 0.00 40 1015.7
20260502222300 24 264 12.9 16.1 0.00 0.00 0.00 39 1015.6
20260502221755 24 242 8.0 9.7 0.00 0.00 0.00 39 1015.8
20260502221252 24 253 11.3 17.7 0.00 0.00 0.00 39 1015.6
20260502220749 23 274 12.9 22.5 0.00 0.00 0.00 39 1015.8
20260502220245 24 260 17.7 17.7 0.00 0.00 0.00 38 1015.8
20260502215742 23 173 12.9 20.9 0.00 0.00 0.00 43 1015.8
20260502215239 24 257 11.3 12.9 0.00 0.00 0.00 43 1016.0
20260502214736 24 280 11.3 14.5 0.00 0.00 0.00 43 1016.1
20260502214235 24 262 11.3 14.5 0.00 0.00 0.00 42 1016.1
20260502213731 24 278 8.0 9.7 0.00 0.00 0.00 43 1016.3
20260502213228 23 279 9.7 11.3 0.00 0.00 0.00 44 1016.4
20260502212726 23 249 4.8 8.0 0.00 0.00 0.00 44 1016.3
20260502212224 23 267 20.9 24.1 0.00 0.00 0.00 45 1016.2
20260502211720 23 277 8.0 11.3 0.00 0.00 0.00 51 1016.5
20260502211217 23 257 14.5 17.7 0.00 0.00 0.00 52 1016.1
20260502210714 23 293 12.9 17.7 0.00 0.00 0.00 52 1016.4
20260502210211 23 257 9.7 12.9 0.00 0.00 0.00 53 1016.3
20260502205708 23 140 6.4 8.0 0.00 0.00 0.00 52 1016.6
20260502205205 23 248 12.9 14.5 0.00 0.00 0.00 52 1016.6
20260502204702 23 273 11.3 14.5 0.00 0.00 0.00 50 1016.5
20260502204159 23 281 8.0 11.3 0.00 0.00 0.00 50 1016.7
20260502203656 23 265 8.0 11.3 0.00 0.00 0.00 51 1016.8
20260502203155 23 267 4.8 4.8 0.00 0.00 0.00 50 1016.8
20260502202648 22 277 4.8 4.8 0.00 0.00 0.00 52 1017.0
20260502202147 23 282 12.9 16.1 0.00 0.00 0.00 50 1016.7
20260502201644 23 261 8.0 9.7 0.00 0.00 0.00 51 1017.1
20260502201140 22 265 9.7 12.9 0.00 0.00 0.00 52 1017.0
20260502200636 22 286 6.4 9.7 0.00 0.00 0.00 54 1017.2
20260502200133 22 256 14.5 16.1 0.00 0.00 0.00 54 1017.2
20260502195631 22 292 8.0 9.7 0.00 0.00 0.00 55 1017.3
20260502195127 22 277 8.0 9.7 0.00 0.00 0.00 56 1017.4
20260502194624 22 251 3.2 3.2 0.00 0.00 0.00 56 1017.2
20260502194121 21 274 11.3 12.9 0.00 0.00 0.00 57 1017.4
20260502193617 22 255 6.4 11.3 0.00 0.00 0.00 56 1017.5
20260502193114 21 283 4.8 8.0 0.00 0.00 0.00 57 1017.4
20260502192609 21 259 8.0 12.9 0.00 0.00 0.00 56 1017.6
20260502192107 21 255 12.9 14.5 0.00 0.00 0.00 57 1017.5
20260502191603 21 274 4.8 4.8 0.00 0.00 0.00 58 1017.5
20260502191056 21 260 9.7 12.9 0.00 0.00 0.00 58 1017.7
20260502190553 21 295 14.5 14.5 0.00 0.00 0.00 58 1017.7
20260502190050 21 288 14.5 14.5 0.00 0.00 0.00 57 1017.8
20260502185545 21 256 3.2 4.8 0.00 0.00 0.00 58 1017.7
20260502185042 21 227 1.6 3.2 0.00 0.00 0.00 57 1017.8
20260502184538 21 231 1.6 3.2 0.00 0.00 0.00 58 1017.9
20260502184034 21 271 4.8 8.0 0.00 0.00 0.00 57 1017.7
20260502183530 20 271 4.8 4.8 0.00 0.00 0.00 60 1017.7
20260502183027 20 254 4.8 4.8 0.00 0.00 0.00 60 1017.8
20260502182522 20 274 0.0 3.2 0.00 0.00 0.00 59 1017.8
20260502182018 20 274 6.4 9.7 0.00 0.00 0.00 59 1017.8